Regional Weather Roundup
Issued by NWS

Home | Current Version | Previous Version | Graphics & Text | Print | Product List | Glossary On
Versions: 1 2 3 4 5 6 7 8 9 10 11 12 13 14 15 16 17 18 19 20 21 22 23 24 25 26 27 28 29 30 31 32 33 34 35 36 37 38 39 40 41 42 43 44 45 46 47 48 49 50
062
ASUS43 KOAX 260402
RWRNE

WEATHER ROUNDUP FOR NEBRASKA
NATIONAL WEATHER SERVICE OMAHA NE
1100 PM CDT SAT MAR 25 2017

NOTES: SATELLITE DATA IS BEING USED TO AUGMENT CLOUD COVER ABOVE
       12000 FEET.
       "FAIR" INDICATES FEW OR NO CLOUDS BELOW 12,000 FEET WITH NO
       SIGNIFICANT WEATHER AND/OR OBSTRUCTIONS TO VISIBILITY.

  * THESE STATIONS DO NOT REPORT WEATHER SUCH AS RAIN...SNOW OR FOG.

NEZ001>004-019>022-054>056-260500-
NEBRASKA PANHANDLE

CITY           SKY/WX    TMP DP  RH WIND       PRES   REMARKS
SCOTTSBLUFF    CLOUDY    50  34  54 E9        29.82F
ALLIANCE       CLOUDY    48  31  51 S9        29.83S
CHADRON        MOCLDY    56  31  38 SW7G23    29.79S
KIMBALL        PTCLDY    45  35  69 S8        29.86F
SIDNEY         CLOUDY    40  30  67 S7        29.86F
$$

NEZ057>060-069>072-079>082-260500-
SOUTHWEST NEBRASKA

CITY           SKY/WX    TMP DP  RH WIND       PRES   REMARKS
NORTH PLATTE   CLOUDY    43  40  89 SE13      29.89F
IMPERIAL       CLOUDY    44  40  85 SE15      29.88R
LEXINGTON      CLOUDY    43  40  91 E10       29.91F
MCCOOK         PTCLDY    39  39 100 SE6       29.91R WCI  35
OGALLALA       CLOUDY    46  32  57 SE7       29.87S
$$

NEZ005>010-023>029-035>040-094-260500-
NORTH CENTRAL NEBRASKA

CITY           SKY/WX    TMP DP  RH WIND       PRES   REMARKS
VALENTINE      CLOUDY    41  37  86 SE10      29.88F
AINSWORTH      CLOUDY    40  40 100 SE13      29.90S WCI  33
BROKEN BOW     CLOUDY    42  41  96 E8        29.91F FOG
O`NEILL        CLOUDY    39  39 100 CALM      29.95F FOG
ORD            CLOUDY    39  37  92 E5        29.93F FOG
THEDFORD       CLOUDY    41  39  95 SE6       29.90R
$$

NEZ041-046>049-061>064-073>077-083>087-260500-
SOUTH CENTRAL NEBRASKA

CITY           SKY/WX    TMP DP  RH WIND       PRES   REMARKS
GRAND ISLAND   FOG       38  38 100 NE6       29.95F VSB 3/4 WCI  33
AURORA         CLOUDY    38  38 100 N5        29.95F FOG     WCI  35
HASTINGS       FOG       39  38  96 NE8       29.94F VSB 3/4 WCI  33
HEBRON         CLOUDY    40  39  97 NE3       29.95S FOG
HOLDREGE       CLOUDY    40  39  97 E7        29.92F FOG
KEARNEY *      CLOUDY    39  37  93 E7        29.94F WCI  34
YORK           CLOUDY    39  39 100 N5        29.95R
$$

NEZ011>018-030>034-042>045-260500-
NORTHEAST NEBRASKA

CITY           SKY/WX    TMP DP  RH WIND       PRES   REMARKS
NORFOLK        CLOUDY    39  36  89 CALM      29.94S
ALBION         CLOUDY    39  38  94 CALM      29.95F FOG
BLAIR          CLOUDY    40  39  95 N9        29.93F FOG     WCI  34
FREMONT        CLOUDY    40  40 100 NE7       29.94F WCI  35
TEKAMAH        CLOUDY    40  38  93 NE8       29.95F WCI  34
WAYNE          CLOUDY    38  38  99 E8        29.95S FOG     WCI  33
$$

NEZ050>053-065>068-078-088>093-260500-
SOUTHEAST NEBRASKA

CITY           SKY/WX    TMP DP  RH WIND       PRES   REMARKS
LINCOLN        CLOUDY    41  39  93 NE6       29.95F
OMAHA EPPLEY   CLOUDY    42  37  82 NE6       29.93F
BEATRICE       CLOUDY    41  40  98 N8        29.93F FOG
FALLS CITY     CLOUDY    42  41  96 NW5       29.91F
NEBRASKA CITY  CLOUDY    40  40 100 N7        29.92F
PLATTSMOUTH    CLOUDY    40  38  92 N5        29.92F FOG
$$

NEZ044-045-051>053-067-260500-
OMAHA AREA

CITY           SKY/WX    TMP DP  RH WIND       PRES   REMARKS
OMAHA EPPLEY   CLOUDY    42  37  82 NE6       29.93F
BLAIR          CLOUDY    40  39  95 N9        29.93F FOG     WCI  34
FREMONT        CLOUDY    40  40 100 NE7       29.94F WCI  35
MILLARD        CLOUDY    43  41  92 NE5       29.94F
OFFUTT AFB     CLOUDY    41  39  93 NE7       29.93S
PLATTSMOUTH    CLOUDY    40  38  92 N5        29.92F FOG
WAHOO          CLOUDY    40  38  95 NE7       29.94F WCI  35
$$




USA.gov is the U.S. government's official web portal to all federal, state and local government web resources and services.